Location: Zagreb
(45.8000°N, 16.0000°E)
Time: 13:35:35
(UTC+02:00)

Transit 2A Rocket - Pass Details

Date: 18 August 2022
Orbit: 593 x 907 km, 66.7° (Epoch: 25 September)

Event Time Altitude Azimuth Distance (km) Brightness Sun altitude
Rises 16:25:36 0° 165° (SSE) 2,995 8.1 35.8°
Reaches altitude 10° 16:28:52 10° 142° (SE) 2,031 7.1 35.2°
Maximum altitude 16:31:22 15° 108° (ESE) 1,707 6.6 34.8°
Drops below altitude 10° 16:33:48 10° 74° (ENE) 1,972 6.7 34.4°
Sets 16:36:53 0° 51° (NE) 2,854 7.5 33.9°
